Flag for Guinea Weather past 2 weeks in Conakry, Guinea

Now
81 °F

Passing clouds.


Feels Like: 85 °F
Forecast: 80 / 85 °F
Wind: No wind

Location: Conakry / Gbessia

Current Time: May 4, 2015 at 5:05:45 AM

Latest Report: May 4, 2015 at 4:00 AM


Visibility: N/A

Pressure: 29.86 "Hg

Humidity: 79%

Dew point: 73 °F

Location of ConakryLocation

Historic Weather in Conakry — Graph

°F

Conakry temperature yesterday

Maximum temperature yesterday: 91 °F (at 2:00 PM)
Minimum temperature yesterday: 79 °F (at 4:00 AM)
Average temperature yesterday: 83 °F

Past Weeks' High & Low Weather Summary

 TemperatureHumidityPressure
High91 °F (Apr 21, 2:00 PM)100% (Apr 23, 4:00 AM)32.55 "Hg (Apr 23, 4:00 AM)
Low73 °F (Apr 26, 11:00 PM)26% (Apr 22, 5:00 PM)29.74 "Hg (Apr 30, 5:00 PM)
Average83 °F72%29.87 "Hg
* Reported Apr 19 4:00 AM — May 4 4:00 AM, Conakry, Weather by CustomWeather, © 2015

Note: Actual official high and low records may vary slightly from our data, if they occured in-between our weather recording intervals... More about our weather records

Advertising

Conakry weather history for previous 24 hours

 ConditionsComfort  
Time TempWeatherWind HumidityBarometerVisibility
4:00 AM
Mon, May 4
81 °FPassing clouds.No wind79%29.86 "HgN/A
3:00 AM81 °FPassing clouds.5 mph79%29.86 "HgN/A
2:00 AM81 °FPassing clouds.2 mph79%29.89 "HgN/A
1:00 AM81 °FPassing clouds.2 mph79%29.86 "HgN/A
12:00 AM81 °FPassing clouds.2 mph84%29.89 "HgN/A
11:00 PM
Sun, May 3
81 °FPassing clouds.7 mph79%29.92 "HgN/A
10:00 PM82 °FPassing clouds.14 mph74%29.89 "HgN/A
9:00 PM82 °FPassing clouds.14 mph79%29.89 "HgN/A
8:00 PM81 °FPassing clouds.12 mph84%29.86 "HgN/A
7:00 PM81 °FPartly sunny.12 mph84%29.83 "HgN/A
6:00 PM84 °FPartly sunny.12 mph70%29.80 "HgN/A
5:00 PM86 °FPartly sunny.14 mph66%29.80 "HgN/A
4:00 PM88 °FPartly sunny.14 mph62%29.80 "HgN/A
3:00 PM90 °FPartly sunny.14 mph59%29.83 "HgN/A
2:00 PM91 °FScattered clouds.7 mph56%29.83 "HgN/A
1:00 PM90 °FScattered clouds.9 mph59%29.83 "HgN/A
12:00 PM84 °FScattered clouds.9 mph74%29.86 "HgN/A
11:00 AM84 °FPartly sunny.7 mph74%29.86 "HgN/A
10:00 AM82 °FPartly sunny.7 mph79%29.89 "HgN/A
9:00 AM82 °FScattered clouds.7 mph79%29.86 "HgN/A
8:00 AM81 °FScattered clouds.9 mph84%29.83 "HgN/A
7:00 AM79 °FPartly sunny.2 mph94%29.86 "HgN/A
6:00 AM79 °FPassing clouds.No wind94%29.83 "HgN/A
5:00 AM79 °FPassing clouds.2 mph94%29.83 "HgN/A
Weather by CustomWeather, © 2015

See weather overviewHow to use our weather pages